Regional Weather Roundup
Issued by NWS New Orleans/Baton Rouge, LA

Home | Current Version | Previous Version | Text Only | Print | Product List | Glossary Off
Versions: 1 2 3 4 5 6 7 8 9 10 11 12 13 14 15 16 17 18 19 20 21 22 23 24 25 26 27 28 29 30 31 32 33 34 35 36 37 38 39 40 41 42 43 44 45 46 47 48 49 50

679
ASUS44 KLIX 010305
RWRLIX
NEW ORLEANS REGIONAL WEATHER ROUNDUP
NATIONAL WEATHER SERVICE NEW ORLEANS LA
1000 PM CDT THU JUL 31 2014

NOTE: "FAIR" INDICATES FEW OR NO CLOUDS BELOW 12,000 FEET WITH NO
      SIGNIFICANT WEATHER AND/OR OBSTRUCTIONS TO VISIBILITY.
      SKY/WX - SKY CONDITION AND SIGNIFICANT WEATHER.
      TMP - AIR TEMPERATURE.     DP    - DEWPOINT TEMPERATURE.
      RH  - RELATIVE HUMIDITY.   PRES  - PRESSURE.
      HI  - HEAT INDEX.          WCI   - WIND CHILL INDEX.

*  THESE STATIONS ARE NOT NWS OR FAA STATIONS AND ARE NOT UNDER
   NWS QUALITY CONTROL.

LAZ038-040-048-061>063-065>067-069-010400-
SOUTHEAST LOUISIANA

CITY           SKY/WX    TMP DP  RH WIND       PRES   REMARKS
N.O. AUDUBON     N/A     84  70  63 MISG        N/A
N.O. INTL ARPT MOCLDY    79  69  71 SE5       29.99R
N.O. LAKEFRONT PTCLDY    82  69  64 SE6       30.00R
N.O. DOWNTOWN*   N/A     82  66  57 S5        30.00R
SLIDELL        CLEAR     73  70  90 N5        29.99S
BATON ROUGE    MOCLDY    77  68  73 E7        29.98R
BOOTHVILLE     PTCLDY    79  68  69 E3        30.00S
BELLE CHASSE   MOCLDY    75  70  84 CALM      29.99R
BOGALUSA*        N/A     75  67  76 CALM      30.02R
GALLIANO*      NOT AVBL
NEW ROADS*       N/A     77  66  67 E5        29.99R
GONZALES*        N/A     79  70  74 CALM      29.98R
HAMMOND*       PTCLDY    77  66  69 E6        30.01S
HOUMA*         CLEAR     76  69  79 CALM      29.98S
PORT FOURCHON* CLEAR     82  70  65 SE8       30.01R

$$

MSZ070-080>082-010400-
SOUTHERN MISSISSIPPI

CITY           SKY/WX    TMP DP  RH WIND       PRES   REMARKS
MCCOMB         PTCLDY    74  64  71 VRB3      30.01S
GULFPORT       PTCLDY    80  66  62 N6        29.99R
BILOXI         PTCLDY    77  66  68 NE6       30.00R
PASCAGOULA     PTCLDY    71  68  90 CALM      30.00R

$$

COASTAL OBSERVATIONS
LAKE AND NEARSHORE STATIONS

STATION/POSITION TIME  TEMP    WIND        PRES    WAVE
                       AIR SEA DIR/SP/G            HT/PER
                 (UTC) (F)     (DEG/KT/KT) (MB)    (FT/S)
PASCAGOULA       0300   78     300/  4/  5 1015.4
WAVELAND YACHT   0300   81      30/  8/  9 1015.1
GRAND ISLE       0300   82 88  100/  4/  6 1016.3
SOUTHWEST PASS   0300   82 86   50/  5/  6 1016.3
NEW CANAL        0300   82 84  140/  2/  4 1015.9
SHELL BEACH      0300   81 83  130/  3/  5 1015.5

OFFSHORE STATIONS

STATION/POSITION TIME  TEMP    WIND        PRES    WAVE
                       AIR SEA DIR/SP/G            HT/PER
                 (UTC) (F)     (DEG/KT/KT) (MB)    (FT/S)
64 S DAUPHIN ISL 0249   82 85   20/  2/  4 1016.2

$$




USA.gov is the U.S. government's official web portal to all federal, state and local government web resources and services.